Location: Newark
(7.1028°S, 35.3258°W)
Time: 14:17:50
(UTC+00:00)

Vanguard 3 - Pass Details

Date: 24 February 2020
Orbit: 508 x 3262 km, 33.3° (Epoch: 30 March)

Event Time Altitude Azimuth Distance (km) Brightness Sun altitude
Rises 07:07:16 0° 243° (WSW) 3,720 - -20.1°
Reaches altitude 10° 07:10:32 10° 249° (WSW) 2,412 - -19.3°
Exits shadow 07:14:32 37° 286° (WNW) 996 7.1 -18.3°
Maximum altitude 07:15:30 43° 321° (NW) 855 6.9 -18.1°
Drops below altitude 10° 07:19:09 10° 34° (NE) 1,758 9.2 -17.2°
Sets 07:21:12 0° 42° (NE) 2,592 10.2 -16.7°
